Hourly Weather Roundup
Issued by NWS Central Illinois

Home | Current Version | Previous Version | Text Only | Print | Product List | Glossary On
Versions: 1 2 3 4 5 6 7 8 9 10 11 12 13 14 15 16 17 18 19 20 21 22 23 24 25 26 27 28 29 30 31 32 33 34 35 36 37 38 39 40 41 42 43 44 45 46 47 48 49 50
000
NZUS43 KILX 230310
HWRILX

AREA WEATHER ROUNDUP
NATIONAL WEATHER SERVICE, LINCOLN IL
1000 PM CDT WED MAR 22 2017


CITY           SKY/WX    TMP DP  RH WIND       PRES   REMARKS
BLOOMINGTON    CLOUDY    32  21  64 E13       30.44S WCI  22
CHAMPAIGN      CLOUDY    33  21  61 E12       30.44F WCI  24
DECATUR        CLOUDY    35  20  54 E12       30.43S WCI  27
EFFINGHAM      CLOUDY   N/A N/A N/A NE9       30.43S
FLORA          PTCLDY    42  21  43 E7        30.42R
GALESBURG      CLOUDY    37  22  56 E10         N/A  WCI  29
JACKSONVILLE   CLEAR     36  18  48 E7        30.41R WCI  30
LACON          CLOUDY    33  24  69 E6        30.44S WCI  27
LAWRENCEVILLE  CLOUDY    37  20  50 E9        30.43F WCI  30
LITCHFIELD     CLEAR     39  18  43 E7        30.39R WCI  34
$$


CITY           SKY/WX    TMP DP  RH WIND       PRES   REMARKS
LINCOLN        CLOUDY    37  24  61 E9        30.43S WCI  30
MACOMB         CLOUDY    39  19  45 E10       30.43R WCI  32
MATTOON        PTCLDY    35  21  56 E8        30.42S WCI  29
MT CARMEL AP   PTCLDY    37  19  47 E8        30.42F WCI  31
OLNEY-NOBLE AP PTCLDY    39  21  48 E10       30.42S WCI  32
PARIS          PTCLDY    33  24  69 E8        30.46F WCI  26
PEORIA         PTCLDY    37  21  52 E10       30.44R WCI  30
PONTIAC        CLOUDY    32  26  78 E9        30.46F WCI  24
RANTOUL        PTCLDY    34  25  70 E9        30.45F WCI  27
SPRINGFIELD    PTCLDY    40  18  41 E12       30.41R WCI  33
TAYLORVILLE    CLOUDY    38  19  46 E13       30.41R WCI  30
$$

...REGIONAL REPORTS...


CITY           SKY/WX    TMP DP  RH WIND       PRES   REMARKS
CHICAGO O`HARE PTCLDY    30  18  60 E7        30.47F WCI  23
KANKAKEE       PTCLDY    28  22  76 CALM      30.49S
MOLINE         CLOUDY    39  21  48 SE10      30.41S WCI  32
MOUNT STERLING CLOUDY    39  17  40 E14       30.38S WCI  31
MOUNT VERNON   PTCLDY    41  20  43 NE9       30.40S
PITTSFIELD     PTCLDY    43  15  32 E9        30.39S
QUINCY         PTCLDY    42  14  32 E12       30.37R
ROCKFORD       PTCLDY    30  17  58 E12       30.47F WCI  20
$$


CITY           SKY/WX    TMP DP  RH WIND       PRES   REMARKS
BURLINGTON     CLOUDY    40  18  41 SE12G21   30.38S WCI  33
CEDAR RAPIDS   CLOUDY    37  22  54 SE14G24   30.34F WCI  28
DES MOINES     MOCLDY    43  20  39 SE9G18    30.28F
KIRKSVILLE     PTCLDY    42  14  32 E9        30.32S
OTTUMWA        PTCLDY    40  16  37 SE13      30.33S WCI  32
ST LOUIS       MOCLDY    47  18  31 E12       30.38R
$$


CITY           SKY/WX    TMP DP  RH WIND       PRES   REMARKS
TERRE HAUTE    CLEAR     30  21  69 E7        30.46S WCI  23
EVANSVILLE     CLEAR     40  20  44 NE9       30.42R WCI  34
INDIANAPOLIS   PTCLDY    34  20  56 E10       30.47R WCI  26
LAFAYETTE      CLEAR     28  19  69 E8        30.49R WCI  20
MADISON        CLEAR     30  19  63 SE13      30.44S WCI  20
MILWAUKEE      PTCLDY    27  17  66 CALM      30.49F
$$





USA.gov is the U.S. government's official web portal to all federal, state and local government web resources and services.